[[{"header":{"parameterUnit":"m.s-1","parameterCategory":1,"la1":30.2991,"la2":30.254,"lo1":-89.0895,"lo2":-89.0444,"dy":0.0017,"dx":0.0017,"nx":28,"ny":28,"refTime":"2023-11-09T09:00:00:Z","depth":0,"parameterNumber":2,"parameterNumberName":"U-component_of_WINDS"},"data":[0,0,0,0,0,0,0,0,0,0,0,0,0,0,0,0,0,0,0,0,0,0,0,0,0,0,0,0,0,0,0,0,0,0,0,0,0,0,0,0,0,0,0,0,0,0,0,0,0,0,0,0,0,0,0,0,0,0,-3.3602,-3.3602,0,-3.3614,-3.3614,-3.3614,-3.3567,-3.3566,-3.3564,-3.3563,-3.3575,-3.3576,-3.3578,0,0,0,0,0,0,0,0,0,0,0,0,0,-3.3538,-3.3539,-3.3602,-3.3602,-3.3602,-3.3614,-3.3614,-3.3614,-3.3567,-3.3566,-3.3564,-3.3563,-3.3574,-3.3576,-3.3578,0,0,0,0,0,0,0,0,0,0,0,0,0,-3.3559,-3.3539,-3.3602,-3.358,-3.3578,-3.3614,-3.3614,-3.3614,-3.3568,-3.3566,-3.3564,-3.3562,-3.3574,-3.3576,-3.3578,-3.3635,0,0,-3.3586,-3.3587,0,0,0,0,0,0,0,0,-3.3558,-3.3562,-3.3583,-3.3582,-3.358,-3.3587,-3.3596,-3.3621,-3.3568,-3.3572,-3.3563,-3.3561,-3.358,-3.3582,-3.3589,-3.3635,-3.3636,-3.3586,-3.3587,-3.3588,-3.3589,0,0,0,0,0,0,0,-3.3557,-3.3561,-3.3606,-3.3583,-3.3581,-3.357,-3.3571,-3.36,-3.3588,-3.3571,-3.3568,-3.357,-3.3579,-3.3587,-3.3589,-3.3636,-3.3586,-3.3588,-3.3589,-3.359,-3.3729,-3.3731,0,0,0,0,0,0,-3.3558,-3.356,-3.3606,-3.3607,-3.3564,-3.3573,-3.3573,-3.3587,-3.3587,-3.3585,-3.3572,-3.3568,-3.3584,-3.3586,-3.3589,-3.3654,-3.3588,-3.3591,-3.3592,-3.3727,-3.373,-3.3732,0,0,0,0,0,0,-3.3557,-3.3563,-3.3605,-3.3582,-3.3587,-3.3576,-3.3591,-3.3588,-3.3596,-3.3588,-3.3585,-3.3582,-3.3582,-3.3586,-3.3624,-3.3654,-3.3592,-3.3594,-3.3724,-3.3728,-3.3731,-3.3786,0,0,0,0,0,0,-3.3555,-3.3562,-3.3584,-3.3583,-3.3588,-3.364,-3.3593,-3.359,-3.36,-3.3595,-3.3596,-3.3595,-3.3581,-3.3621,-3.3626,-3.3656,-3.3596,-3.3722,-3.3726,-3.373,-3.3781,-3.3791,-3.3799,0,0,0,0,0,-3.3553,-3.3598,-3.3585,-3.3591,-3.3615,-3.3642,-3.3645,-3.3628,-3.3603,-3.3624,-3.3619,-3.3595,-3.3651,-3.3625,-3.3631,-3.3662,-3.372,-3.3725,-3.373,-3.3777,-3.3789,-3.3799,0,0,0,0,0,0,-3.3602,-3.3598,-3.3583,-3.363,-3.3637,-3.3634,-3.366,-3.3641,-3.3655,-3.3649,-3.3628,-3.3629,-3.3671,-3.3671,-3.3642,-3.3717,-3.3681,-3.3687,-3.3715,-3.3726,-3.3734,-3.3732,-3.3598,0,0,0,0,0,-3.3618,-3.3641,-3.3636,-3.3678,-3.3682,-3.3671,-3.3682,-3.3669,-3.3675,-3.3677,-3.3675,-3.3682,-3.3701,-3.3714,-3.3731,-3.3782,-3.3781,-3.3807,-3.3816,-3.3823,-3.3828,-3.3854,-3.3865,-3.3749,-3.3749,-3.3749,0,0,-3.3652,-3.3653,-3.3668,-3.3688,-3.3691,-3.3715,-3.3673,-3.37,-3.3717,-3.3681,-3.3717,-3.3716,-3.3722,-3.3767,-3.3786,-3.3768,-3.3861,-3.3829,-3.3835,-3.3836,-3.3861,-3.3872,-3.3882,-3.3752,-3.3752,-3.3751,0,0,-3.3724,-3.3728,-3.3763,-3.3768,-3.3774,-3.3767,-3.3775,-3.3776,-3.3774,-3.381,-3.3783,-3.3804,-3.3837,-3.3843,-3.385,-3.3927,-3.3905,-3.3933,-3.3978,-3.4004,-3.4013,-3.4021,-3.4047,-3.4057,-3.3939,-3.3939,-3.3939,0,-3.3765,-3.3799,-3.3783,-3.3811,-3.382,-3.3791,-3.3825,-3.3831,-3.3843,-3.385,-3.383,-3.3871,-3.3874,-3.3919,-3.3938,-3.3945,-3.3954,-3.3931,-3.4013,-3.4021,-3.4028,-3.4053,-3.4063,-3.3942,-3.3942,-3.3942,-3.3941,0,-3.3848,-3.3873,-3.39,-3.3913,-3.3925,-3.3957,-3.3945,-3.396,-3.3947,-3.3942,-3.3978,-3.398,-3.3997,-3.4008,-3.3995,-3.4051,-3.4039,-3.4017,-3.3979,-3.4043,-3.4065,-3.4075,-3.3947,-3.3946,-3.3945,-3.3944,0,0,-3.3949,-3.3954,-3.3964,-3.3969,-3.3975,-3.3993,-3.4024,-3.4041,-3.4054,-3.4064,-3.4089,-3.4119,-3.4098,-3.4106,-3.4094,-3.4117,-3.4177,-3.4092,-3.4091,-3.4106,-3.4238,-3.4253,-3.4264,-3.4163,-3.4165,-3.4167,-3.4237,0,-3.4019,-3.4071,-3.4058,-3.4109,-3.4131,-3.4105,-3.4131,-3.4138,-3.4135,-3.4153,-3.4149,-3.417,-3.4142,-3.4146,-3.4169,-3.4165,-3.4202,-3.416,-3.4185,-3.4186,-3.4181,-3.4276,-3.4292,-3.4358,-3.4246,-3.4247,-3.4248,0,-3.4106,-3.412,-3.4174,-3.4177,-3.4186,-3.421,-3.4224,-3.4243,-3.425,-3.4246,-3.4256,-3.424,-3.427,-3.4235,-3.4276,-3.4247,-3.4257,-3.4257,-3.4259,-3.4259,-3.4219,-3.4276,-3.4379,-3.4388,-3.4262,-3.4261,-3.426,0,-3.4172,-3.4205,-3.4241,-3.4247,-3.4251,-3.4269,-3.4272,-3.4277,-3.4288,-3.4302,-3.4309,-3.4326,-3.4334,-3.4348,-3.4336,-3.4312,-3.4379,-3.4343,-3.4375,-3.4375,-3.4388,-3.4387,-3.4491,-3.4399,-3.4399,-3.4398,-3.4398,0,-3.425,-3.4283,-3.427,-3.4292,-3.4329,-3.4315,-3.4352,-3.4351,-3.4357,-3.4378,-3.4357,-3.4378,-3.4363,-3.4382,-3.4374,-3.4408,-3.4413,-3.441,-3.4406,-3.441,-3.441,-3.4414,-3.4408,-3.4401,-3.44,-3.44,-3.44,0,-3.4328,-3.4321,-3.4358,-3.4361,-3.4362,-3.4389,-3.439,-3.4411,-3.4407,-3.4434,-3.444,-3.4434,-3.4455,-3.4446,-3.4469,-3.4464,-3.4508,-3.45,-3.4505,-3.4502,-3.4534,-3.453,-3.4642,-3.4656,-3.4557,-3.4558,-3.4559,0,-3.4377,-3.4402,-3.4407,-3.442,-3.4425,-3.4446,-3.4458,-3.4445,-3.4458,-3.4469,-3.4488,-3.4509,-3.4523,-3.456,-3.4557,-3.4575,-3.4565,-3.4604,-3.4568,-3.4571,-3.4564,-3.4561,-3.4563,-3.461,-3.4611,-3.4612,-3.4613,0,-3.4463,-3.4459,-3.4476,-3.4493,-3.4508,-3.4521,-3.4531,-3.4543,-3.4531,-3.4547,-3.4569,-3.4581,-3.4605,-3.4625,-3.4641,-3.4644,-3.4626,-3.4625,-3.4633,-3.4635,-3.4636,-3.4634,-3.4522,-3.4621,-3.4621,-3.462,-3.462,-3.4619,-3.4527,-3.4548,-3.4555,-3.4575,-3.4582,-3.4593,-3.4612,-3.4611,-3.463,-3.4648,-3.464,-3.4666,-3.4674,-3.4693,-3.4699,-3.4719,-3.4703,-3.4715,-3.4718,-3.4721,-3.4724,-3.4636,-3.4722,-3.4722,-3.4721,-3.4721,-3.4721,0,-3.461,-3.4614,-3.4633,-3.4649,-3.4665,-3.4649,-3.4661,-3.4675,-3.4698,-3.4707,-3.4722,-3.4748,-3.4768,-3.4768,-3.4786,-3.4802,-3.4794,-3.4807,-3.4804,-3.4805,-3.4737,-3.4727,-3.4813,-3.4813,-3.4813,-3.4813,-3.4813,-3.4813,-3.4655,-3.469,-3.4686,-3.4724,-3.4728,-3.4753,-3.4761,-3.477,-3.4777,-3.4807,-3.4824,-3.4824,-3.4829,-3.4848,-3.4865,-3.4865,-3.4872,-3.4887,-3.4883,-3.4819,-3.481,-3.4801,-3.4792,-3.4889,-3.4889,-3.4949,-3.4949,-3.495]},{"header":{"parameterUnit":"m.s-1","parameterCategory":1,"la1":30.2991,"la2":30.254,"lo1":-89.0895,"lo2":-89.0444,"dy":0.0017,"dx":0.0017,"nx":28,"ny":28,"refTime":"2023-11-09T09:00:00:Z","depth":0,"parameterNumber":3,"parameterNumberName":"V-component_of_WINDS"},"data":[0,0,0,0,0,0,0,0,0,0,0,0,0,0,0,0,0,0,0,0,0,0,0,0,0,0,0,0,0,0,0,0,0,0,0,0,0,0,0,0,0,0,0,0,0,0,0,0,0,0,0,0,0,0,0,0,0,0,1.6709,1.671,0,1.6789,1.679,1.6791,1.6777,1.6776,1.6774,1.6773,1.6857,1.686,1.6864,0,0,0,0,0,0,0,0,0,0,0,0,0,1.6547,1.655,1.6709,1.671,1.6711,1.6789,1.679,1.6791,1.6778,1.6776,1.6774,1.6773,1.6856,1.686,1.6864,0,0,0,0,0,0,0,0,0,0,0,0,0,1.6621,1.6551,1.6709,1.6714,1.6715,1.6789,1.679,1.6792,1.6778,1.6776,1.6774,1.6772,1.6854,1.6859,1.6865,1.694,0,0,1.6881,1.6883,0,0,0,0,0,0,0,0,1.6617,1.6627,1.6712,1.6713,1.6715,1.6771,1.6764,1.6841,1.6778,1.6754,1.6773,1.6771,1.683,1.6837,1.6857,1.6944,1.6947,1.6881,1.6884,1.6887,1.6888,0,0,0,0,0,0,0,1.6612,1.6624,1.6741,1.6713,1.6715,1.6713,1.6721,1.6778,1.6803,1.6756,1.6755,1.6765,1.683,1.6852,1.6859,1.6948,1.6881,1.6886,1.6889,1.6891,1.7105,1.7107,0,0,0,0,0,0,1.6605,1.662,1.6738,1.6743,1.666,1.6717,1.6727,1.6755,1.6802,1.6807,1.6766,1.6764,1.6844,1.6853,1.6862,1.6956,1.6887,1.6892,1.6895,1.7102,1.7105,1.7108,0,0,0,0,0,0,1.6602,1.6616,1.6735,1.6681,1.6696,1.6722,1.6755,1.6758,1.6779,1.681,1.6815,1.6784,1.6842,1.6854,1.6921,1.6958,1.6894,1.6899,1.7099,1.7103,1.7107,1.7142,0,0,0,0,0,0,1.6597,1.6615,1.6642,1.6682,1.6699,1.6792,1.6757,1.6761,1.6788,1.6786,1.6828,1.6832,1.6842,1.6913,1.6926,1.6964,1.6903,1.7096,1.7101,1.7105,1.7138,1.7146,1.7154,0,0,0,0,0,1.6591,1.6649,1.6644,1.6658,1.6734,1.6794,1.6804,1.6813,1.6791,1.682,1.6841,1.6831,1.6952,1.692,1.6935,1.6975,1.7094,1.71,1.7105,1.7134,1.7145,1.7154,0,0,0,0,0,0,1.6612,1.6654,1.6649,1.672,1.6754,1.6792,1.6828,1.6824,1.6865,1.686,1.687,1.688,1.6949,1.6968,1.6933,1.7052,1.702,1.7029,1.7037,1.7047,1.7055,1.705,1.6907,0,0,0,0,0,1.6625,1.667,1.6704,1.6764,1.6781,1.6802,1.6828,1.6833,1.6868,1.6882,1.6907,1.6942,1.6989,1.7019,1.7063,1.714,1.7151,1.7175,1.7183,1.719,1.7198,1.7244,1.7256,1.7126,1.7126,1.7126,0,0,1.6653,1.6681,1.6708,1.6769,1.6795,1.6843,1.6814,1.6864,1.69,1.689,1.6955,1.6975,1.7015,1.7089,1.7123,1.7107,1.7236,1.7197,1.7202,1.7207,1.7251,1.7263,1.7274,1.713,1.7129,1.7129,0,0,1.6727,1.6751,1.6806,1.6834,1.6874,1.6888,1.6902,1.6941,1.6954,1.702,1.7014,1.7057,1.7135,1.7165,1.7191,1.728,1.7274,1.7294,1.7337,1.7382,1.7392,1.7401,1.7436,1.7448,1.7301,1.7302,1.7302,0,1.6756,1.6826,1.6834,1.6887,1.6915,1.6908,1.6965,1.6991,1.7044,1.7065,1.7047,1.7147,1.7173,1.7256,1.7278,1.7297,1.7315,1.729,1.739,1.7399,1.7408,1.7441,1.7454,1.7304,1.7304,1.7303,1.7303,0,1.6861,1.691,1.6949,1.7002,1.7034,1.7088,1.7106,1.7138,1.7141,1.7157,1.7226,1.7258,1.731,1.7329,1.7331,1.7413,1.7403,1.7387,1.7355,1.7422,1.7454,1.7467,1.7307,1.7306,1.7306,1.7305,0,0,1.695,1.7008,1.7023,1.7048,1.7094,1.7133,1.7188,1.7238,1.7267,1.7305,1.7353,1.742,1.7408,1.7437,1.7442,1.7481,1.7554,1.7461,1.7463,1.748,1.7649,1.7662,1.7677,1.7549,1.7552,1.7554,1.7647,0,1.7031,1.7127,1.7138,1.7225,1.7272,1.7268,1.7316,1.735,1.7368,1.7412,1.7431,1.748,1.7458,1.7476,1.7514,1.7537,1.7588,1.753,1.7596,1.7599,1.7589,1.7693,1.7706,1.7793,1.7659,1.7661,1.7663,0,1.7138,1.718,1.7271,1.7314,1.7334,1.7377,1.7427,1.7467,1.7507,1.7518,1.7552,1.7553,1.7612,1.7577,1.766,1.762,1.7648,1.7664,1.7667,1.7675,1.7636,1.7706,1.782,1.7834,1.7681,1.768,1.7679,0,1.7197,1.7276,1.7342,1.7364,1.7414,1.7445,1.7467,1.7505,1.7536,1.7579,1.76,1.765,1.7677,1.7716,1.7732,1.7704,1.7815,1.7781,1.7828,1.7828,1.7852,1.7851,1.7975,1.7866,1.7866,1.7866,1.7866,0,1.7287,1.7345,1.737,1.7411,1.7476,1.7488,1.7552,1.7574,1.7608,1.7654,1.7653,1.7697,1.7713,1.7761,1.7773,1.7842,1.7853,1.7865,1.7868,1.7867,1.7866,1.7887,1.7882,1.7869,1.7869,1.7868,1.7867,0,1.7365,1.7384,1.7457,1.7499,1.7511,1.7558,1.7594,1.7635,1.7653,1.7712,1.7726,1.7754,1.781,1.7829,1.7896,1.7905,1.7986,1.7982,1.7972,1.7974,1.8021,1.8017,1.8164,1.8185,1.806,1.8062,1.8063,0,1.7423,1.7467,1.7515,1.7546,1.757,1.7619,1.7652,1.7666,1.77,1.775,1.7786,1.7841,1.7886,1.7976,1.8003,1.8055,1.8055,1.8103,1.8063,1.8061,1.8059,1.8058,1.8064,1.8111,1.8112,1.8113,1.8114,0,1.7524,1.7532,1.7578,1.7629,1.7668,1.7708,1.7747,1.7773,1.7793,1.7832,1.7889,1.7924,1.7994,1.805,1.8104,1.8129,1.8127,1.8126,1.8141,1.8141,1.8134,1.8142,1.7996,1.8123,1.8122,1.8122,1.8121,1.8121,1.7595,1.7636,1.7677,1.7729,1.776,1.7798,1.7839,1.7863,1.7911,1.7969,1.7974,1.8037,1.8079,1.8151,1.8178,1.8229,1.8216,1.8235,1.8241,1.8246,1.8251,1.8124,1.8238,1.8238,1.8238,1.8237,1.8237,0,1.7699,1.7725,1.7774,1.783,1.7872,1.7865,1.7909,1.7945,1.8,1.8039,1.8084,1.8152,1.8207,1.8239,1.8295,1.8329,1.833,1.8344,1.8343,1.8349,1.8258,1.8242,1.8343,1.8343,1.8343,1.8342,1.8342,1.8342,1.7758,1.7827,1.7841,1.7926,1.7953,1.8014,1.804,1.8076,1.8107,1.8183,1.8229,1.825,1.8287,1.8346,1.8397,1.8405,1.8427,1.8443,1.8451,1.8366,1.8355,1.8345,1.8329,1.8447,1.8447,1.8537,1.8538,1.8539]}]]